When you browse on this site, cookies collect data to enhance your experience and personalize the content and advertising you see.
Visit our Privacy Policy to learn more. By continuing to use the site, you agree to this use of cookies and data.
  • în România
  • Lista ţărilor
  • Pe 7 zile
  • Temperatura apei
  • Meteo pe hartă
  • Widget-uri
  • user-avatar
    Intrare

    Meteo pe oră la La Massana

    Astăzi, 25 Mai, Luni

    Timp Temperatura Precipitaţii Vânt Presiune Umiditate
    00:00 +8°C° 0 mm 0 m/s 617 mmHg 95%
    01:00 +8°C° 0 mm 0 m/s 617 mmHg 95%
    02:00 +7°C° 0 mm 0 m/s 616 mmHg 95%
    03:00 +7°C° 0 mm 0 m/s 616 mmHg 95%
    04:00 +8°C° 0 mm 0 m/s 617 mmHg 93%
    05:00 +9°C° 0 mm 0 m/s 617 mmHg 90%
    06:00 +10°C° 0 mm 1 m/s 617 mmHg 87%
    07:00 +12°C° 0 mm 1 m/s 618 mmHg 79%
    08:00 +14°C° 0 mm 1 m/s 619 mmHg 71%
    09:00 +16°C° 0 mm 1 m/s 620 mmHg 63%
    10:00 +16°C° 0.3 mm 1 m/s 620 mmHg 64%
    11:00 +16°C° 0.3 mm 1 m/s 619 mmHg 65%
    12:00 +16°C° 0 mm 2 m/s 620 mmHg 68%
    13:00 +16°C° 0.8 mm 1 m/s 619 mmHg 68%
    14:00 +16°C° 0.8 mm 1 m/s 619 mmHg 68%
    15:00 +16°C° 0.8 mm 1 m/s 619 mmHg 68%
    16:00 +15°C° 0.5 mm 1 m/s 618 mmHg 72%
    17:00 +14°C° 0.5 mm 1 m/s 618 mmHg 75%
    18:00 +13°C° 0.5 mm 1 m/s 618 mmHg 79%
    19:00 +12°C° 0 mm 1 m/s 617 mmHg 84%
    20:00 +10°C° 0 mm 1 m/s 617 mmHg 88%
    21:00 +8°C° 0 mm 1 m/s 617 mmHg 92%
    22:00 +8°C° 0 mm 1 m/s 616 mmHg 90%
    23:00 +8°C° 0 mm 1 m/s 616 mmHg 88%

    Mâine, 26 Mai, Marţi

    Timp Temperatura Precipitaţii Vânt Presiune Umiditate
    00:00 +7°C° 0 mm 1 m/s 616 mmHg 86%
    01:00 +7°C° 0 mm 1 m/s 616 mmHg 83%
    02:00 +7°C° 0 mm 1 m/s 616 mmHg 80%
    03:00 +7°C° 0 mm 1 m/s 615 mmHg 77%
    04:00 +8°C° 0 mm 1 m/s 616 mmHg 74%
    05:00 +9°C° 0 mm 1 m/s 616 mmHg 72%
    06:00 +10°C° 0 mm 1 m/s 617 mmHg 69%
    07:00 +12°C° 0 mm 1 m/s 618 mmHg 61%
    08:00 +14°C° 0 mm 1 m/s 619 mmHg 54%
    09:00 +16°C° 0 mm 1 m/s 620 mmHg 46%
    10:00 +18°C° 0 mm 1 m/s 620 mmHg 45%
    11:00 +19°C° 0 mm 1 m/s 621 mmHg 43%
    12:00 +19°C° 0 mm 2 m/s 621 mmHg 42%
    13:00 +19°C° 0 mm 2 m/s 620 mmHg 47%
    14:00 +18°C° 0 mm 2 m/s 620 mmHg 51%
    15:00 +18°C° 0 mm 2 m/s 619 mmHg 56%
    16:00 +17°C° 0.2 mm 2 m/s 619 mmHg 66%
    17:00 +15°C° 0.2 mm 2 m/s 618 mmHg 75%
    18:00 +14°C° 0.2 mm 1 m/s 617 mmHg 85%
    19:00 +12°C° 0.1 mm 1 m/s 617 mmHg 88%
    20:00 +11°C° 0.1 mm 1 m/s 617 mmHg 90%
    21:00 +10°C° 0.1 mm 1 m/s 617 mmHg 92%
    22:00 +9°C° 0 mm 1 m/s 616 mmHg 87%
    23:00 +8°C° 0 mm 1 m/s 616 mmHg 82%

    Poimâine, 27 Mai, Miercuri

    Timp Temperatura Precipitaţii Vânt Presiune Umiditate
    00:00 +6°C° 0 mm 2 m/s 615 mmHg 76%
    01:00 +7°C° 0 mm 1 m/s 615 mmHg 72%
    02:00 +7°C° 0 mm 1 m/s 615 mmHg 67%
    03:00 +6°C° 0 mm 1 m/s 615 mmHg 63%
    04:00 +7°C° 0 mm 1 m/s 615 mmHg 63%
    05:00 +8°C° 0 mm 1 m/s 616 mmHg 63%
    06:00 +9°C° 0 mm 1 m/s 617 mmHg 63%
    07:00 +12°C° 0 mm 1 m/s 618 mmHg 55%
    08:00 +14°C° 0 mm 1 m/s 619 mmHg 48%
    09:00 +18°C° 0 mm 1 m/s 620 mmHg 41%
    10:00 +18°C° 0 mm 1 m/s 620 mmHg 41%
    11:00 +18°C° 0 mm 2 m/s 620 mmHg 41%
    12:00 +18°C° 0 mm 2 m/s 620 mmHg 41%
    13:00 +17°C° 0.1 mm 2 m/s 620 mmHg 49%
    14:00 +17°C° 0.1 mm 2 m/s 619 mmHg 57%
    15:00 +16°C° 0.1 mm 2 m/s 619 mmHg 66%
    16:00 +14°C° 0.4 mm 1 m/s 619 mmHg 73%
    17:00 +13°C° 0.4 mm 1 m/s 618 mmHg 80%
    18:00 +12°C° 0.4 mm 1 m/s 618 mmHg 87%
    19:00 +11°C° 0.1 mm 1 m/s 618 mmHg 89%
    20:00 +11°C° 0.1 mm 1 m/s 618 mmHg 92%
    21:00 +10°C° 0.1 mm 1 m/s 618 mmHg 94%
    22:00 +10°C° 0 mm 1 m/s 617 mmHg 95%
    23:00 +9°C° 0 mm 1 m/s 617 mmHg 95%

    28 Mai, Joi

    Timp Temperatura Precipitaţii Vânt Presiune Umiditate
    00:00 +9°C° 0 mm 1 m/s 617 mmHg 95%
    01:00 +9°C° 0 mm 1 m/s 617 mmHg 95%
    02:00 +9°C° 0 mm 1 m/s 616 mmHg 94%
    03:00 +8°C° 0 mm 1 m/s 616 mmHg 94%
    04:00 +9°C° 0 mm 1 m/s 616 mmHg 92%
    05:00 +9°C° 0 mm 1 m/s 616 mmHg 89%
    06:00 +10°C° 0 mm 1 m/s 616 mmHg 87%
    07:00 +12°C° 0 mm 1 m/s 617 mmHg 77%
    08:00 +14°C° 0 mm 1 m/s 618 mmHg 67%
    09:00 +16°C° 0 mm 1 m/s 619 mmHg 57%
    10:00 +16°C° 0.1 mm 1 m/s 618 mmHg 57%
    11:00 +16°C° 0.1 mm 2 m/s 618 mmHg 57%
    12:00 +17°C° 0.1 mm 2 m/s 618 mmHg 57%
    13:00 +16°C° 0.6 mm 2 m/s 618 mmHg 62%
    14:00 +15°C° 0.6 mm 2 m/s 617 mmHg 67%
    15:00 +15°C° 0.6 mm 1 m/s 616 mmHg 72%
    16:00 +14°C° 0.5 mm 1 m/s 616 mmHg 76%
    17:00 +14°C° 0.5 mm 1 m/s 616 mmHg 79%
    18:00 +13°C° 0.5 mm 1 m/s 615 mmHg 82%
    19:00 +12°C° 0 mm 1 m/s 615 mmHg 86%
    20:00 +10°C° 0 mm 1 m/s 614 mmHg 89%
    21:00 +9°C° 0 mm 1 m/s 614 mmHg 92%
    22:00 +9°C° 0 mm 1 m/s 613 mmHg 90%
    23:00 +8°C° 0 mm 1 m/s 613 mmHg 88%

    29 Mai, Vineri

    Timp Temperatura Precipitaţii Vânt Presiune Umiditate
    00:00 +8°C° 0 mm 1 m/s 613 mmHg 86%
    01:00 +7°C° 0 mm 1 m/s 612 mmHg 81%
    02:00 +7°C° 0 mm 1 m/s 612 mmHg 76%
    03:00 +7°C° 0 mm 1 m/s 612 mmHg 71%
    04:00 +8°C° 0 mm 1 m/s 612 mmHg 70%
    05:00 +9°C° 0 mm 1 m/s 612 mmHg 68%
    06:00 +10°C° 0 mm 1 m/s 613 mmHg 66%
    07:00 +12°C° 0 mm 1 m/s 613 mmHg 57%
    08:00 +15°C° 0 mm 1 m/s 614 mmHg 48%
    09:00 +18°C° 0 mm 1 m/s 615 mmHg 40%
    10:00 +19°C° 0 mm 1 m/s 615 mmHg 39%
    11:00 +20°C° 0 mm 1 m/s 615 mmHg 38%
    12:00 +19°C° 0 mm 2 m/s 616 mmHg 37%
    13:00 +19°C° 0.1 mm 2 m/s 615 mmHg 41%
    14:00 +18°C° 0.1 mm 2 m/s 614 mmHg 46%
    15:00 +18°C° 0.1 mm 2 m/s 614 mmHg 50%
    16:00 +17°C° 0.4 mm 2 m/s 613 mmHg 59%
    17:00 +15°C° 0.4 mm 1 m/s 613 mmHg 67%
    18:00 +14°C° 0.4 mm 1 m/s 612 mmHg 76%
    19:00 +12°C° 0 mm 1 m/s 612 mmHg 81%
    20:00 +11°C° 0 mm 1 m/s 611 mmHg 86%
    21:00 +9°C° 0 mm 1 m/s 611 mmHg 91%
    22:00 +9°C° 0 mm 1 m/s 611 mmHg 89%
    23:00 +8°C° 0 mm 1 m/s 610 mmHg 87%

    30 Mai, Sâmbătă

    Timp Temperatura Precipitaţii Vânt Presiune Umiditate
    00:00 +8°C° 0 mm 1 m/s 610 mmHg 85%
    01:00 +7°C° 0 mm 1 m/s 610 mmHg 79%
    02:00 +7°C° 0 mm 1 m/s 610 mmHg 74%
    03:00 +7°C° 0 mm 1 m/s 609 mmHg 69%
    04:00 +8°C° 0 mm 1 m/s 610 mmHg 67%
    05:00 +9°C° 0 mm 1 m/s 611 mmHg 66%
    06:00 +10°C° 0 mm 1 m/s 611 mmHg 64%
    07:00 +12°C° 0 mm 1 m/s 612 mmHg 56%
    08:00 +15°C° 0 mm 1 m/s 613 mmHg 48%
    09:00 +18°C° 0 mm 1 m/s 614 mmHg 40%
    10:00 +19°C° 0 mm 1 m/s 614 mmHg 38%
    11:00 +20°C° 0 mm 1 m/s 614 mmHg 36%
    12:00 +20°C° 0 mm 2 m/s 615 mmHg 35%
    13:00 +20°C° 0 mm 2 m/s 614 mmHg 37%
    14:00 +20°C° 0 mm 2 m/s 614 mmHg 40%
    15:00 +20°C° 0 mm 2 m/s 614 mmHg 42%
    16:00 +18°C° 0.1 mm 2 m/s 613 mmHg 52%
    17:00 +18°C° 0.1 mm 1 m/s 612 mmHg 61%
    18:00 +15°C° 0.1 mm 1 m/s 611 mmHg 71%
    19:00 +14°C° 0.1 mm 1 m/s 611 mmHg 77%
    20:00 +12°C° 0.1 mm 1 m/s 611 mmHg 83%
    21:00 +10°C° 0.1 mm 1 m/s 610 mmHg 88%
    22:00 +10°C° 0 mm 1 m/s 610 mmHg 89%
    23:00 +10°C° 0 mm 1 m/s 610 mmHg 89%
    Arată mai mult